EW3281 Weather Reports


Display with metric or nautical units.
time (UTC)temp
F
wind
direction
speed
MPH
gust
MPH
rain 1hr
in
rain 24hr
in
rain mn
in
humidity
%
barometer
mb
20260507212531 66 238 0.0 0.0 0.00 0.15 0.00 29 1003.6
20260507212031 67 226 0.0 0.0 0.00 0.15 0.00 31 1003.6
20260507211534 67 240 0.0 0.0 0.00 0.15 0.00 30 1003.6
20260507211031 67 321 0.0 0.0 0.00 0.15 0.00 30 1003.5
20260507210531 67 298 0.0 0.0 0.00 0.15 0.00 31 1003.5
20260507210031 67 225 0.0 5.0 0.00 0.15 0.00 29 1003.6
20260507205531 67 219 0.0 6.0 0.00 0.15 0.00 28 1003.5
20260507205030 67 225 0.0 0.0 0.00 0.15 0.00 29 1003.5
20260507204530 68 219 0.0 4.0 0.00 0.15 0.00 32 1003.5
20260507203539 67 217 1.0 6.0 0.00 0.15 0.00 30 1003.4
20260507203044 67 217 0.0 0.0 0.00 0.15 0.00 32 1003.5
20260507202537 67 199 0.0 1.0 0.00 0.15 0.00 32 1003.5
20260507202037 68 198 0.0 1.0 0.00 0.15 0.00 31 1003.5
20260507201539 68 148 0.0 0.0 0.00 0.15 0.00 33 1003.4
20260507201039 68 248 0.0 0.0 0.00 0.15 0.00 31 1003.4
20260507200539 68 260 0.0 0.0 0.00 0.15 0.00 33 1003.4
20260507200036 68 181 0.0 0.0 0.00 0.15 0.00 31 1003.4
20260507195537 68 236 0.0 0.0 0.00 0.15 0.00 28 1003.4
20260507195036 68 221 0.0 0.0 0.00 0.15 0.00 32 1003.5
20260507194536 68 225 0.0 0.0 0.00 0.15 0.00 30 1003.5
20260507193528 68 155 0.0 1.0 0.00 0.15 0.00 31 1003.6
20260507193026 68 226 0.0 1.0 0.00 0.15 0.00 35 1003.8
20260507192525 68 237 0.0 2.0 0.00 0.15 0.00 32 1003.8
20260507192025 68 236 0.0 2.0 0.00 0.15 0.00 34 1003.8
20260507191525 68 217 0.0 0.0 0.00 0.15 0.00 33 1003.8
20260507191024 68 203 0.0 0.0 0.00 0.15 0.00 32 1003.8
20260507190524 69 357 0.0 0.0 0.00 0.15 0.00 36 1003.9
20260507190023 68 209 0.0 0.0 0.00 0.15 0.00 32 1004.0
20260507185522 67 3 0.0 0.0 0.00 0.15 0.00 32 1004.1
20260507185021 68 236 0.0 0.0 0.00 0.15 0.00 31 1004.1
20260507184521 68 222 0.0 0.0 0.00 0.15 0.00 32 1004.2
20260507183519 67 253 0.0 0.0 0.00 0.15 0.00 31 1004.3
20260507183018 66 347 0.0 0.0 0.00 0.15 0.00 31 1004.4
20260507182517 67 209 0.0 1.0 0.00 0.15 0.00 31 1004.6
20260507182020 67 1 0.0 1.0 0.00 0.15 0.00 36 1004.5
20260507181515 66 356 0.0 1.0 0.00 0.15 0.00 37 1004.6
20260507181014 66 218 0.0 1.0 0.00 0.15 0.00 33 1004.8
20260507180515 66 252 0.0 1.0 0.00 0.15 0.00 34 1004.8
20260507180013 66 76 0.0 1.0 0.00 0.15 0.00 35 1004.8
20260507175512 66 238 0.0 0.0 0.00 0.15 0.00 33 1004.8
20260507175012 65 266 0.0 0.0 0.00 0.15 0.00 33 1004.8
20260507174513 65 219 0.0 1.0 0.00 0.15 0.00 36 1004.9
20260507173511 66 250 0.0 2.0 0.00 0.15 0.00 37 1004.8
20260507173025 65 341 0.0 5.0 0.00 0.15 0.00 38 1004.7
20260507172510 65 231 0.0 5.0 0.00 0.15 0.00 39 1004.8
20260507172012 65 240 0.0 5.0 0.00 0.15 0.00 44 1004.9
20260507171509 64 215 1.0 5.0 0.00 0.15 0.00 43 1005.0
20260507171007 65 186 0.0 8.0 0.00 0.15 0.00 39 1005.0
20260507170507 65 145 0.0 8.0 0.00 0.15 0.00 41 1005.0
20260507170005 65 359 0.0 2.0 0.00 0.15 0.00 41 1005.1
20260507165504 65 158 0.0 0.0 0.00 0.15 0.00 40 1005.2
20260507165003 65 243 0.0 0.0 0.00 0.15 0.00 45 1005.3
20260507164502 64 226 0.0 0.0 0.00 0.15 0.00 45 1005.5
20260507163600 65 195 0.0 4.0 0.00 0.15 0.00 47 1005.4
20260507163120 64 3 0.0 2.0 0.00 0.15 0.00 48 1005.4
20260507162557 64 217 0.0 1.0 0.00 0.15 0.00 52 1005.5
20260507162057 64 172 0.0 0.0 0.00 0.15 0.00 50 1005.5
20260507161555 63 207 0.0 0.0 0.00 0.15 0.00 52 1005.7
20260507161053 63 217 0.0 0.0 0.00 0.15 0.00 49 1005.7
20260507160552 63 219 0.0 0.0 0.00 0.15 0.00 52 1005.7
20260507160055 62 174 0.0 8.0 0.00 0.15 0.00 54 1005.8
20260507155552 63 220 0.0 8.0 0.00 0.15 0.00 53 1005.7
20260507155050 62 228 0.0 5.0 0.00 0.15 0.00 54 1005.8
20260507154549 62 210 1.0 7.0 0.00 0.15 0.00 55 1005.9
20260507154150 62 173 1.0 6.0 0.00 0.15 0.00 59 1006.0
20260507153548 62 183 0.0 4.0 0.00 0.15 0.00 60 1005.9
20260507153047 61 225 2.0 4.0 0.00 0.15 0.15 60 1006.0
20260507152548 61 206 0.0 3.0 0.00 0.15 0.15 60 1006.1
20260507152048 60 229 0.0 3.0 0.00 0.15 0.15 64 1006.1
20260507151547 60 191 0.0 2.0 0.00 0.15 0.15 67 1006.2
20260507151044 59 221 0.0 1.0 0.00 0.15 0.15 68 1006.2
20260507150544 58 219 0.0 0.0 0.00 0.15 0.15 70 1006.2
20260507150045 59 221 0.0 1.0 0.00 0.15 0.15 69 1006.3
20260507145544 58 175 0.0 0.0 0.00 0.15 0.15 72 1006.3
20260507145044 58 211 0.0 0.0 0.00 0.15 0.15 75 1006.3
20260507144609 57 334 0.0 0.0 0.00 0.15 0.15 75 1006.4
20260507144144 57 231 0.0 1.0 0.00 0.15 0.15 75 1006.3
20260507143555 57 269 0.0 1.0 0.00 0.15 0.15 76 1006.2
20260507143057 57 217 0.0 0.0 0.00 0.15 0.15 78 1006.3
20260507142556 57 45 0.0 0.0 0.00 0.15 0.15 80 1006.4
20260507142059 57 236 0.0 0.0 0.00 0.15 0.15 78 1006.4
20260507141622 56 212 0.0 0.0 0.00 0.15 0.15 78 1006.3
20260507141055 56 218 0.0 0.0 0.00 0.15 0.15 80 1006.3
20260507140555 56 44 0.0 0.0 0.00 0.15 0.15 82 1006.5
20260507140056 55 297 0.0 0.0 0.00 0.15 0.15 81 1006.6
20260507135555 55 146 0.0 0.0 0.00 0.15 0.15 84 1006.7
20260507135055 54 233 0.0 0.0 0.00 0.15 0.15 86 1006.6
20260507134554 54 226 0.0 0.0 0.00 0.15 0.15 87 1006.6
20260507134155 53 241 0.0 0.0 0.00 0.15 0.15 88 1006.8
20260507133651 53 279 0.0 0.0 0.00 0.15 0.15 88 1006.8
20260507133049 53 240 0.0 0.0 0.00 0.15 0.15 88 1006.7
20260507132550 53 210 0.0 0.0 0.00 0.15 0.15 89 1006.7
20260507132050 52 240 0.0 0.0 0.00 0.15 0.15 88 1006.6
20260507131549 52 136 0.0 0.0 0.00 0.15 0.15 90 1006.7
20260507131049 52 52 0.0 0.0 0.00 0.15 0.15 90 1006.9
20260507130548 52 327 0.0 0.0 0.00 0.15 0.15 91 1007.1
20260507130048 52 254 0.0 0.0 0.01 0.15 0.15 92 1006.7
20260507125549 51 234 0.0 0.0 0.01 0.15 0.15 93 1006.4
20260507125048 51 230 0.0 0.0 0.01 0.15 0.15 93 1006.6
20260507124548 51 310 0.0 0.0 0.01 0.15 0.15 94 1006.6
20260507124148 51 243 0.0 0.0 0.01 0.15 0.15 94 1006.5
20260507123544 51 226 0.0 0.0 0.01 0.15 0.15 94 1006.6
20260507123047 50 231 0.0 0.0 0.01 0.15 0.15 94 1006.6
20260507122544 50 229 0.0 0.0 0.01 0.15 0.15 94 1006.8
20260507122043 50 244 0.0 0.0 0.02 0.15 0.15 95 1006.7
20260507121543 50 231 0.0 0.0 0.02 0.15 0.15 95 1006.8
20260507121043 50 316 0.0 0.0 0.03 0.15 0.15 95 1006.8
20260507120543 50 229 0.0 0.0 0.03 0.15 0.15 95 1007.0
20260507120045 50 228 0.0 0.0 0.03 0.15 0.15 95 1007.0
20260507115543 50 214 0.0 0.0 0.02 0.14 0.14 96 1006.9
20260507115042 50 224 0.0 0.0 0.02 0.14 0.14 96 1006.7
20260507114543 50 217 0.0 0.0 0.02 0.14 0.14 96 1006.5
20260507114144 50 236 0.0 0.0 0.02 0.14 0.14 96 1006.6
20260507113541 50 231 0.0 0.0 0.02 0.14 0.14 96 1006.4
20260507113040 50 231 0.0 0.0 0.02 0.14 0.14 96 1006.5
20260507112541 50 268 0.0 0.0 0.02 0.14 0.14 96 1006.3
20260507112040 50 268 0.0 0.0 0.02 0.14 0.14 96 1006.4
20260507111543 50 235 0.0 0.0 0.01 0.13 0.13 96 1006.5
20260507111040 0 0.0 0.0 0.00 0.12 0.12 1006.6
20260507110536 0 0.0 0.0 0.00 0.12 0.12 1006.7
20260507110034 0 0.0 0.0 0.00 0.12 0.12 1006.8
20260507105534 0 0.0 0.0 0.00 0.12 0.12 1006.2
20260507105031 0 0.0 0.0 0.00 0.12 0.12 1006.5
20260507104530 0 0.0 0.0 0.00 0.12 0.12 1006.4
20260507104130 0 0.0 0.0 0.00 0.12 0.12 1006.0
20260507103527 0 0.0 0.0 0.00 0.12 0.12 1006.1
20260507103025 0 0.0 0.0 0.00 0.12 0.12 1006.1
20260507102524 0 0.0 0.0 0.00 0.12 0.12 1005.7
20260507102022 0 0.0 0.0 0.00 0.12 0.12 1005.5
20260507101522 0 0.0 0.0 0.00 0.12 0.12 1005.6
20260507101020 0 0.0 0.0 0.00 0.12 0.12 1005.9
20260507100518 0 0.0 0.0 0.00 0.12 0.12 1005.9
20260507100019 0 0.0 0.0 0.00 0.12 0.12 1006.0
20260507095518 0 0.0 0.0 0.00 0.12 0.12 1005.9
20260507095014 0 0.0 0.0 0.00 0.12 0.12 1006.0
20260507094512 0 0.0 0.0 0.00 0.12 0.12 1006.1
20260507094111 0 0.0 0.0 0.00 0.12 0.12 1005.8
20260507093511 0 0.0 0.0 0.00 0.12 0.12 1005.6
20260507093012 0 0.0 0.0 0.00 0.12 0.12 1005.5
20260507092508 0 0.0 0.0 0.00 0.12 0.12 1005.7
20260507092009 0 0.0 0.0 0.00 0.12 0.12 1005.9
20260507091506 0 0.0 0.0 0.00 0.12 0.12 1005.6
20260507091003 0 0.0 0.0 0.00 0.12 0.12 1005.4
20260507090503 0 0.0 0.0 0.00 0.12 0.12 1005.2
20260507090100 0 0.0 0.0 0.00 0.12 0.12 1005.2
20260507090002 0 0.0 0.0 0.00 0.12 0.12 1005.2
20260507085559 0 0.0 0.0 0.00 0.12 0.12 1005.4
20260507085058 0 0.0 0.0 0.00 0.12 0.12 1006.0
20260507084557 0 0.0 0.0 0.00 0.12 0.12 1005.6
20260507084055 0 0.0 0.0 0.00 0.12 0.12 1005.3
20260507083554 0 0.0 0.0 0.00 0.12 0.12 1005.2
20260507083053 0 0.0 0.0 0.02 0.12 0.12 1005.4
20260507082555 0 0.0 0.0 0.03 0.12 0.12 1005.2
20260507082051 0 0.0 0.0 0.03 0.12 0.12 1005.0
20260507081549 0 0.0 0.0 0.03 0.12 0.12 1005.1
20260507081048 0 0.0 0.0 0.03 0.12 0.12 1005.4
20260507080546 0 0.0 0.0 0.03 0.12 0.12 1005.0
20260507080045 0 0.0 0.0 0.03 0.12 0.12 1005.3
20260507075543 0 0.0 0.0 0.03 0.12 0.12 1005.2
20260507075045 53 238 0.0 0.0 0.03 0.12 0.12 97 1005.2
20260507074542 53 238 0.0 0.0 0.03 0.12 0.12 97 1005.3
20260507074041 53 238 0.0 0.0 0.03 0.12 0.12 97 1004.9
20260507073543 54 241 0.0 0.0 0.03 0.12 0.12 97 1005.0
20260507073042 54 264 0.0 0.0 0.02 0.11 0.11 97 1004.8
20260507072541 54 248 0.0 0.0 0.00 0.09 0.09 97 1004.8
20260507072042 54 248 0.0 0.0 0.00 0.09 0.09 97 1004.3
20260507071541 54 248 0.0 0.0 0.00 0.09 0.09 97 1004.0
20260507071041 54 248 0.0 0.0 0.00 0.09 0.09 97 1004.1
20260507070541 54 248 0.0 0.0 0.00 0.09 0.09 97 1003.9
20260507070044 54 248 0.0 0.0 0.00 0.09 0.09 97 1003.9
20260507065544 54 248 0.0 0.0 0.00 0.09 0.09 97 1003.8
20260507065039 54 248 0.0 0.0 0.00 0.09 0.09 96 1003.9
20260507064539 54 248 0.0 0.0 0.00 0.09 0.09 96 1004.2
20260507064038 54 248 0.0 0.0 0.00 0.09 0.09 96 1004.3
20260507063536 54 248 0.0 0.0 0.00 0.09 0.09 96 1004.3
20260507063045 54 248 0.0 0.0 0.00 0.09 0.09 96 1004.3
20260507062537 54 248 0.0 0.0 0.00 0.09 0.09 96 1004.3
20260507062037 54 248 0.0 0.0 0.00 0.09 0.09 96 1004.4
20260507061536 54 248 0.0 0.0 0.00 0.09 0.09 96 1004.2
20260507061036 54 248 0.0 0.0 0.00 0.09 0.09 96 1004.3
20260507060535 54 257 0.0 0.0 0.00 0.09 0.09 96 1004.3
20260507060047 54 257 0.0 0.0 0.00 0.09 0.09 96 1004.3
20260507055536 54 253 0.0 0.0 0.00 0.09 0.09 96 1004.5
20260507055033 54 82 0.0 0.0 0.00 0.09 0.09 96 1004.7
20260507054544 54 220 0.0 0.0 0.00 0.09 0.09 96 1004.8
20260507054034 54 220 0.0 0.0 0.00 0.09 0.09 96 1004.7
20260507053535 54 220 0.0 0.0 0.00 0.09 0.09 96 1004.8
20260507053036 54 214 0.0 0.0 0.00 0.09 0.09 96 1004.9
20260507052533 54 222 0.0 0.0 0.00 0.09 0.09 96 1005.1
20260507052033 54 220 0.0 0.0 0.00 0.09 0.09 96 1005.0
20260507051534 54 23 0.0 0.0 0.00 0.09 0.09 96 1005.0
20260507051036 54 164 0.0 0.0 0.00 0.09 0.09 96 1005.2
20260507050534 54 164 0.0 0.0 0.00 0.09 0.09 96 1005.1
20260507050034 54 165 0.0 0.0 0.00 0.09 0.09 96 1005.3
20260507045532 54 41 0.0 0.0 0.00 0.09 0.09 96 1005.4
20260507045032 54 41 0.0 0.0 0.00 0.09 0.09 96 1005.2
20260507044547 54 32 0.0 0.0 0.00 0.09 0.09 96 1005.2
20260507044033 54 108 0.0 0.0 0.00 0.09 0.09 96 1005.2
20260507043531 54 108 0.0 0.0 0.00 0.09 0.09 96 1005.2
20260507043032 54 108 0.0 0.0 0.00 0.09 0.09 96 1005.3
20260507042532 54 63 0.0 0.0 0.00 0.09 0.09 96 1005.2
20260507042031 54 115 0.0 0.0 0.00 0.09 0.09 96 1005.2
20260507041530 54 342 0.0 0.0 0.00 0.09 0.09 96 1005.1
20260507041030 54 77 0.0 0.0 0.00 0.09 0.09 96 1005.2
20260507040530 54 49 0.0 0.0 0.00 0.09 0.09 96 1005.1
20260507040034 54 25 0.0 0.0 0.00 0.09 0.09 96 1005.4
20260507035529 55 30 0.0 0.0 0.00 0.09 0.09 96 1005.4
20260507035029 55 47 0.0 0.0 0.00 0.09 0.09 96 1005.2
20260507034534 55 53 0.0 0.0 0.00 0.09 0.09 96 1005.1
20260507034028 55 18 0.0 0.0 0.00 0.09 0.09 96 1005.4
20260507033527 55 19 0.0 0.0 0.00 0.09 0.09 96 1005.5
20260507033028 55 19 0.0 0.0 0.00 0.09 0.09 96 1005.4
20260507032526 55 339 0.0 0.0 0.00 0.09 0.09 96 1005.5
20260507032030 55 263 0.0 0.0 0.00 0.09 0.09 96 1005.7
20260507031526 55 241 0.0 0.0 0.00 0.09 0.09 96 1005.8
20260507031026 55 240 0.0 0.0 0.00 0.09 0.09 96 1005.6
20260507030531 55 259 0.0 0.0 0.00 0.09 0.09 96 1005.3
20260507030026 55 354 0.0 0.0 0.00 0.09 0.09 96 1005.4
20260507025525 55 66 0.0 0.0 0.00 0.09 0.09 96 1005.4
20260507025025 55 64 0.0 0.0 0.00 0.09 0.09 96 1005.4
20260507024525 55 48 0.0 0.0 0.00 0.09 0.09 96 1005.5
20260507024026 55 158 0.0 0.0 0.00 0.09 0.09 96 1005.4
20260507023529 55 158 0.0 0.0 0.00 0.09 0.09 96 1005.4
20260507023026 55 127 0.0 0.0 0.00 0.09 0.09 96 1005.6
20260507022530 55 223 0.0 0.0 0.00 0.09 0.09 96 1005.5
20260507022029 55 32 0.0 0.0 0.00 0.09 0.09 96 1005.6
20260507021529 55 99 0.0 0.0 0.00 0.09 0.09 96 1005.7
20260507021028 54 68 0.0 0.0 0.00 0.09 0.09 96 1005.5
20260507020524 54 77 0.0 0.0 0.00 0.09 0.09 96 1005.5
20260507020032 55 7 0.0 0.0 0.00 0.09 0.09 96 1005.5
20260507015527 55 324 0.0 0.0 0.00 0.09 0.09 96 1005.6
20260507015023 55 212 0.0 0.0 0.00 0.09 0.09 96 1005.5
20260507014522 55 113 0.0 0.0 0.00 0.09 0.09 96 1005.6
20260507014025 55 8 0.0 0.0 0.00 0.09 0.09 96 1005.8
20260507013520 55 195 0.0 0.0 0.00 0.09 0.09 96 1005.8
20260507013021 55 66 0.0 0.0 0.00 0.09 0.09 96 1005.8
20260507012521 55 135 0.0 0.0 0.00 0.09 0.09 96 1005.8
20260507012020 55 111 0.0 0.0 0.00 0.09 0.09 96 1005.9
20260507011521 55 111 0.0 0.0 0.00 0.09 0.09 96 1006.0
20260507011021 55 160 0.0 0.0 0.00 0.09 0.09 96 1006.0
20260507010520 55 79 0.0 0.0 0.00 0.09 0.09 96 1006.0
20260507010026 55 46 0.0 0.0 0.00 0.09 0.09 96 1006.1
20260507005519 55 200 0.0 0.0 0.00 0.09 0.09 96 1006.1
20260507005019 55 44 0.0 0.0 0.00 0.09 0.09 96 1006.1
20260507004524 55 46 0.0 0.0 0.00 0.09 0.09 96 1006.1
20260507004019 55 49 0.0 0.0 0.00 0.09 0.09 96 1006.0
20260507003520 55 53 0.0 0.0 0.00 0.09 0.09 96 1006.1
20260507003026 55 90 0.0 0.0 0.00 0.09 0.09 96 1006.0
20260507002519 55 190 0.0 0.0 0.00 0.09 0.09 96 1006.0
20260507002020 55 27 0.0 0.0 0.00 0.09 0.09 96 1005.9
20260507001524 55 129 0.0 1.0 0.00 0.09 0.09 96 1005.9
20260507001020 55 58 0.0 1.0 0.00 0.09 0.09 96 1005.9
20260507000519 55 253 0.0 0.0 0.00 0.09 0.09 96 1005.9
20260507000018 55 84 0.0 0.0 0.00 0.09 0.09 96 1006.0
20260506235517 55 271 0.0 0.0 0.00 0.09 0.09 96 1005.9
20260506235017 55 88 0.0 0.0 0.00 0.09 0.09 96 1006.0
20260506234517 55 224 0.0 0.0 0.00 0.09 0.09 96 1005.9
20260506234018 55 85 0.0 0.0 0.00 0.09 0.09 96 1005.9
20260506233514 55 164 0.0 0.0 0.01 0.09 0.09 96 1005.9
20260506233014 55 40 0.0 0.0 0.01 0.09 0.09 96 1005.9
20260506232514 55 184 0.0 0.0 0.01 0.09 0.09 96 1005.9
20260506232014 55 74 0.0 0.0 0.01 0.09 0.09 96 1005.9
20260506231514 55 60 0.0 0.0 0.02 0.09 0.09 96 1005.9
20260506231014 55 22 0.0 1.0 0.04 0.09 0.09 96 1005.9
20260506230513 54 120 0.0 1.0 0.05 0.09 0.09 96 1005.8
20260506230012 54 111 0.0 4.0 0.06 0.09 0.09 96 1005.8
20260506225512 54 75 0.0 4.0 0.06 0.09 0.09 96 1005.8
20260506225113 54 64 0.0 4.0 0.06 0.09 0.09 95 1005.8
20260506224511 54 52 0.0 1.0 0.07 0.09 0.09 95 1005.8
20260506224010 54 151 0.0 1.0 0.07 0.09 0.09 95 1005.8
20260506223511 54 62 0.0 0.0 0.06 0.08 0.08 95 1005.9
20260506223009 54 59 0.0 0.0 0.06 0.08 0.08 95 1005.9
20260506222511 55 78 0.0 0.0 0.06 0.08 0.08 95 1005.8
20260506222009 55 78 0.0 0.0 0.06 0.08 0.08 95 1005.8
20260506221507 55 49 0.0 0.0 0.06 0.07 0.07 95 1006.0
20260506221005 55 345 0.0 4.0 0.04 0.05 0.05 95 1006.1
20260506220506 55 60 0.0 4.0 0.04 0.05 0.05 95 1006.1
20260506220005 55 25 0.0 0.0 0.03 0.04 0.04 94 1006.3
20260506215505 55 306 0.0 0.0 0.02 0.03 0.03 94 1006.2
20260506215005 55 27 0.0 0.0 0.02 0.03 0.03 94 1006.4
20260506214505 55 143 0.0 0.0 0.01 0.02 0.02 94 1006.3
20260506214008 55 86 0.0 1.0 0.02 0.02 0.02 94 1006.4
20260506213502 55 53 0.0 1.0 0.02 0.02 0.02 94 1006.4
20260506213004 55 94 0.0 1.0 0.02 0.02 0.02 94 1006.4